1513821600.66,61863,6.44,73420.0,-16.05,-17.35,-17.49,0,*63
1513821601.95,61864,6.44,73424.8,-16.05,-17.25,-17.41,0,*6D
1513821603.22,61865,6.44,73424.8,-16.05,-17.21,-17.35,0,*6B
1513821604.5,61866,6.44,73428.3,-16.01,-17.25,-17.35,0,*68
1513821605.77,61867,6.44,73424.8,-16.05,-17.25,-17.35,0,*6D
1513821607.04,61868,6.44,73430.0,-16.07,-17.41,-17.45,0,*65
1513821608.31,61869,6.44,73438.8,-16.07,-17.41,-17.55,0,*65
1513821609.59,61870,6.44,73436.8,-16.07,-17.41,-17.45,0,*6C
1513821610.82,61871,6.44,73428.0,-16.07,-17.31,-17.55,0,*6B
1513821612.1,61872,6.44,73424.5,-16.07,-17.45,-17.45,0,*6A
1513821613.36,61873,6.44,73432.5,-16.07,-17.55,-17.55,0,*6B
1513821614.64,61874,6.44,73432.5,-16.07,-17.45,-17.59,0,*61
1513821615.91,61875,6.44,73436.0,-16.07,-17.45,-17.45,0,*6D
1513821617.18,61876,6.44,73428.8,-16.07,-17.41,-17.45,0,*6A
1513821618.39,61877,6.44,73436.5,-16.07,-17.31,-17.31,0,*6F
1513821619.66,61878,6.44,73434.3,-16.07,-17.41,-17.55,0,*65
1513821620.93,61879,6.44,73428.8,-16.09,-17.55,-17.69,0,*60
1513821622.22,61880,6.44,73426.8,-16.09,-17.55,-17.55,0,*69
1513821623.46,61881,6.44,73428.3,-16.07,-17.59,-17.69,0,*65
1513821624.7,61882,6.44,73424.8,-16.09,-17.69,-17.83,0,*6F
1513821625.94,61883,6.44,73426.8,-16.09,-17.83,-17.73,0,*65
1513821627.16,61884,6.44,73424.3,-16.07,-17.83,-17.73,0,*6C
1513821628.38,61885,6.44,73422.0,-16.07,-17.83,-17.73,0,*6D
1513821629.63,61886,6.44,73422.8,-16.09,-17.83,-17.83,0,*6F
1513821630.87,61887,6.44,73424.5,-16.09,-17.83,-17.83,0,*6E
1513821632.1,61888,6.44,73422.5,-16.07,-17.87,-17.87,0,*6F
1513821633.37,61889,6.44,73426.3,-16.09,-17.97,-17.87,0,*61
1513821634.64,61890,6.44,73426.8,-16.09,-17.87,-17.97,0,*69
1513821635.94,61891,6.44,73418.8,-16.09,-17.97,-17.97,0,*69
1513821637.21,61892,6.44,73416.8,-16.11,-17.93,-18.01,0,*67
1513821638.47,61893,6.44,73426.8,-16.13,-17.87,-17.93,0,*65
1513821639.73,61894,6.44,73434.3,-16.11,-17.79,-17.93,0,*61
1513821641.0,61895,6.44,73422.8,-16.13,-17.45,-17.49,0,*6A
1513821642.29,61896,6.44,73414.8,-16.09,-17.45,-17.55,0,*6F
1513821643.5,61897,6.44,73416.8,-16.11,-17.73,-17.73,0,*66
1513821644.74,61898,6.44,73418.8,-16.11,-17.79,-17.87,0,*68
1513821645.96,61899,6.44,73414.0,-16.11,-17.87,-17.87,0,*68
1513821647.2,61900,6.44,73416.0,-16.11,-17.49,-17.79,0,*6A
1513821648.47,61901,6.44,73420.8,-16.13,-17.59,-17.73,0,*62
1513821649.73,61902,6.44,73418.0,-16.11,-17.63,-17.63,0,*6B
1513821651.02,61903,6.44,73414.0,-16.13,-17.59,-17.79,0,*6A
1513821652.28,61904,6.44,73422.3,-16.13,-17.79,-17.73,0,*65
1513821653.54,61905,6.44,73418.5,-16.13,-17.79,-17.87,0,*6F
1513821654.8,61906,6.44,73414.8,-16.11,-17.79,-17.93,0,*6B
1513821656.05,61907,6.44,73418.5,-16.13,-17.87,-17.87,0,*6C
1513821657.31,61908,6.44,73422.0,-16.13,-17.87,-17.93,0,*66
1513821658.59,61909,6.44,73422.5,-16.13,-17.79,-17.93,0,*66
1513821659.86,61910,6.44,73422.0,-16.13,-17.87,-18.01,0,*6B
1513821661.13,61911,6.44,73424.3,-16.13,-17.87,-17.93,0,*6E
1513821662.4,61912,6.44,73428.8,-16.13,-17.87,-18.01,0,*69
1513821663.68,61913,6.44,73430.3,-16.13,-17.79,-17.93,0,*6D
1513821664.94,61914,6.44,73422.3,-16.13,-17.87,-17.93,0,*6B
1513821666.19,61915,6.44,73412.0,-16.15,-17.87,-17.79,0,*68
1513821667.46,61916,6.44,73414.5,-16.17,-17.93,-18.07,0,*6A
1513821668.68,61917,6.44,73418.8,-16.15,-17.83,-18.07,0,*68
1513821669.92,61918,6.44,73418.8,-16.15,-17.93,-18.07,0,*66
1513821671.22,61919,6.44,73418.3,-16.17,-17.93,-17.97,0,*63
1513821672.47,61920,6.44,73424.3,-16.17,-17.83,-18.07,0,*6E
1513821673.75,61921,6.44,73422.8,-16.17,-17.97,-18.11,0,*6D
1513821675.03,61922,6.44,73420.3,-16.17,-17.97,-18.07,0,*69
1513821676.3,61923,6.44,73418.3,-16.17,-17.97,-18.07,0,*68
1513821677.6,61924,6.44,73420.5,-16.17,-17.97,-17.97,0,*69
1513821678.9,61925,6.44,73418.0,-16.17,-17.93,-17.97,0,*6C
1513821680.15,61926,6.44,73416.5,-16.17,-17.83,-18.07,0,*68
1513821681.45,61927,6.44,73412.5,-16.17,-17.93,-17.97,0,*6E
1513821682.71,61928,6.44,73422.5,-16.17,-17.83,-17.93,0,*64
1513821684.01,61929,6.44,73420.0,-16.17,-17.93,-17.93,0,*64
1513821685.29,61930,6.44,73410.3,-16.19,-17.97,-17.97,0,*62
1513821686.58,61931,6.44,73408.3,-16.17,-17.93,-17.97,0,*69
1513821687.88,61932,6.44,73418.5,-16.17,-17.93,-17.97,0,*6A
1513821689.11,61933,6.44,73424.0,-16.19,-17.87,-17.87,0,*61
1513821690.34,61934,6.44,73420.3,-16.19,-17.83,-17.87,0,*62
1513821691.58,61935,6.44,73416.5,-16.21,-17.87,-17.97,0,*6D
1513821692.79,61936,6.44,73418.3,-16.21,-17.83,-17.87,0,*6B
1513821694.01,61937,6.44,73412.8,-16.21,-17.83,-17.87,0,*6A
1513821695.22,61938,6.44,73416.3,-16.21,-17.83,-17.87,0,*65
1513821696.45,61939,6.44,73422.3,-16.19,-17.83,-17.87,0,*6F
1513821697.67,61940,6.44,73426.3,-16.19,-17.73,-17.87,0,*6E
1513821698.9,61941,6.44,73422.5,-16.19,-17.73,-17.87,0,*6F
1513821700.11,61942,6.44,73422.0,-16.21,-17.83,-17.87,0,*68
1513821701.33,61943,6.44,73424.8,-16.21,-17.73,-17.83,0,*62
1513821702.53,61944,6.44,73420.3,-16.21,-17.69,-17.73,0,*61
1513821703.75,61945,6.44,73422.3,-16.19,-17.69,-17.73,0,*6B
1513821704.99,61946,6.44,73426.5,-16.21,-17.59,-17.83,0,*6F
1513821706.2,61947,6.44,73428.8,-16.21,-17.73,-17.73,0,*69
1513821707.41,61948,6.44,73432.8,-16.21,-17.73,-17.87,0,*6D
1513821708.65,61949,6.44,73428.3,-16.21,-17.59,-17.83,0,*60
1513821709.91,61950,6.44,73424.8,-16.21,-17.59,-17.59,0,*6F
1513821711.14,61951,6.44,73426.8,-16.21,-17.69,-17.59,0,*6D
1513821712.36,61952,6.44,73424.0,-16.21,-17.69,-17.83,0,*69
1513821713.62,61953,6.44,73420.3,-16.21,-17.59,-17.59,0,*6C
1513821714.88,61954,6.44,73420.3,-16.21,-17.59,-17.59,0,*6B
1513821716.11,61955,6.44,73420.3,-16.21,-17.59,-17.69,0,*69
1513821717.32,61956,6.44,73422.3,-16.21,-17.69,-17.69,0,*69
1513821718.53,61957,6.44,73426.5,-16.21,-17.69,-17.73,0,*63
1513821719.73,61958,6.44,73424.5,-16.21,-17.69,-17.69,0,*67
1513821720.94,61959,6.44,73428.5,-16.21,-17.69,-17.69,0,*66
1513821722.15,61960,6.44,73428.5,-16.21,-17.69,-17.73,0,*67
1513821723.39,61961,6.44,73424.5,-16.23,-17.69,-17.83,0,*6B
1513821724.63,61962,6.44,73424.3,-16.23,-17.69,-17.73,0,*67
1513821725.87,61963,6.44,73428.5,-16.23,-17.69,-17.83,0,*69
1513821727.13,61964,6.44,73430.3,-16.23,-17.59,-17.73,0,*62
1513821728.39,61965,6.44,73424.5,-16.23,-17.59,-17.69,0,*68
1513821729.66,61966,6.44,73418.8,-16.23,-17.55,-17.69,0,*67
1513821730.92,61967,6.44,73416.3,-16.23,-17.59,-17.69,0,*6A
1513821732.21,61968,6.44,73416.0,-16.23,-17.59,-17.59,0,*66
1513821733.5,61969,6.44,73426.3,-16.23,-17.45,-17.55,0,*66
1513821734.8,61970,6.44,73422.5,-16.23,-17.45,-17.45,0,*6F
1513821736.06,61971,6.44,73422.8,-16.23,-17.31,-17.41,0,*69
1513821737.36,61972,6.44,73422.8,-16.27,-17.45,-17.45,0,*69
1513821738.65,61973,6.44,73422.5,-16.23,-17.41,-17.45,0,*68
1513821739.95,61974,6.44,73422.0,-16.23,-17.45,-17.41,0,*6F
1513821741.21,61975,6.44,73420.0,-16.23,-17.25,-17.31,0,*6F
1513821742.47,61976,6.44,73432.0,-16.23,-17.25,-17.31,0,*6C
1513821743.7,61977,6.44,73408.5,-16.23,-17.31,-17.31,0,*68
1513821744.99,61978,6.44,73412.8,-16.23,-17.17,-17.25,0,*66
1513821746.29,61979,6.44,73412.8,-16.23,-17.17,-17.25,0,*67
1513821747.58,61980,6.44,73418.8,-16.23,-17.17,-17.25,0,*61
1513821748.87,61981,6.44,73420.3,-16.23,-17.25,-17.25,0,*61
1513821750.15,61982,6.44,73420.5,-16.23,-17.25,-17.25,0,*62
1513821751.45,61983,6.44,73424.3,-16.23,-17.41,-17.25,0,*61
1513821752.74,61984,6.44,73426.5,-16.23,-17.25,-17.17,0,*65
1513821754.0,61985,6.44,73424.0,-16.23,-17.25,-17.31,0,*60
1513821755.24,61986,6.44,73422.3,-16.19,-17.17,-17.31,0,*6B
1513821756.5,61987,6.44,73424.3,-16.21,-17.11,-17.17,0,*63
1513821757.76,61988,6.44,73422.8,-16.21,-17.11,-17.17,0,*6C
1513821759.01,61989,6.44,73422.8,-16.21,-17.11,-17.17,0,*6D
1513821760.27,61990,6.44,73424.8,-16.21,-17.11,-17.17,0,*65
1513821761.53,61991,6.44,73424.3,-16.21,-17.17,-17.17,0,*62
1513821762.79,61992,6.44,73424.8,-16.21,-17.17,-17.17,0,*61
1513821764.06,61993,6.44,73428.3,-16.21,-17.17,-17.17,0,*60
1513821765.32,61994,6.44,73422.5,-16.21,-17.17,-17.25,0,*66
1513821766.59,61995,6.44,73418.3,-16.19,-17.17,-17.17,0,*6D
1513821767.85,61996,6.44,73426.0,-16.21,-17.07,-17.17,0,*64
1513821769.13,61997,6.44,73428.5,-16.19,-17.07,-17.11,0,*68
1513821770.39,61998,6.44,73428.0,-16.21,-17.11,-17.11,0,*6B
1513821771.66,61999,6.44,73430.3,-16.21,-17.07,-17.07,0,*6A
1513821772.9,62000,6.44,73432.5,-16.21,-16.97,-17.07,0,*68
1513821774.16,62001,6.44,73438.5,-16.21,-17.07,-17.11,0,*66
1513821775.44,62002,6.44,73438.0,-16.19,-17.07,-17.07,0,*69
1513821776.72,62003,6.44,73438.5,-16.19,-17.07,-17.07,0,*68
1513821777.99,62004,6.44,73436.8,-16.21,-17.07,-17.07,0,*64
1513821779.26,62005,6.44,73428.8,-16.19,-17.11,-17.11,0,*6E
1513821780.53,62006,6.44,73424.5,-16.19,-17.11,-17.11,0,*6D
1513821781.79,62007,6.44,73428.0,-16.21,-17.11,-17.11,0,*67
1513821783.07,62008,6.44,73428.5,-16.19,-17.07,-17.11,0,*64
1513821784.34,62009,6.44,73416.8,-16.19,-17.07,-17.11,0,*65
1513821785.6,62010,6.44,73418.3,-16.21,-17.07,-17.11,0,*66
1513821786.82,62011,6.44,73424.5,-16.19,-16.97,-16.97,0,*6B
1513821788.04,62012,6.44,73426.8,-16.19,-16.93,-16.97,0,*6C
1513821789.28,62013,6.44,73422.8,-16.17,-16.93,-16.93,0,*67
1513821790.52,62014,6.44,73422.5,-16.17,-16.89,-16.89,0,*60
1513821791.77,62015,6.44,73414.3,-16.17,-16.75,-16.75,0,*61
1513821793.05,62016,6.44,73424.5,-16.17,-16.65,-16.59,0,*6D
1513821794.34,62017,6.44,73416.3,-16.17,-16.65,-16.65,0,*63
1513821795.61,62018,6.44,73420.5,-16.15,-16.51,-16.51,0,*6E
1513821796.85,62019,6.44,73422.8,-16.13,-16.41,-16.45,0,*6D
1513821798.06,62020,6.44,73426.0,-16.15,-16.37,-16.45,0,*60
1513821799.3,62021,6.44,73428.5,-16.15,-16.37,-16.51,0,*64
1513821800.55,62022,6.44,73428.8,-16.13,-16.41,-16.41,0,*61
1513821801.8,62023,6.44,73432.3,-16.13,-16.55,-16.55,0,*60
1513821803.05,62024,6.44,73430.8,-16.13,-16.55,-16.59,0,*6B
1513821804.29,62025,6.44,73434.5,-16.13,-16.55,-16.55,0,*66
1513821805.51,62026,6.44,73428.3,-16.11,-16.55,-16.55,0,*67
1513821806.76,62027,6.44,73424.8,-16.13,-16.45,-16.55,0,*65
1513821808.0,62028,6.44,73426.0,-16.13,-16.55,-16.55,0,*6B
1513821809.23,62029,6.44,73430.8,-16.11,-16.55,-16.55,0,*68
1513821810.45,62030,6.44,73440.3,-16.11,-16.55,-16.55,0,*60
1513821811.66,62031,6.44,73440.8,-16.11,-16.55,-16.45,0,*60
1513821812.87,62032,6.44,73432.3,-16.11,-16.55,-16.45,0,*63
1513821814.09,62033,6.44,73424.0,-16.11,-16.55,-16.45,0,*62
1513821815.33,62034,6.44,73426.0,-16.13,-16.41,-16.55,0,*63
1513821816.56,62035,6.44,73426.5,-16.11,-16.41,-16.55,0,*60
1513821817.8,62036,6.44,73432.3,-16.09,-16.41,-16.41,0,*6F
1513821819.05,62037,6.44,73432.3,-16.09,-16.55,-16.41,0,*6B
1513821820.29,62038,6.44,73432.0,-16.07,-16.55,-16.51,0,*6B
1513821821.54,62039,6.44,73432.3,-16.07,-16.55,-16.51,0,*6A
1513821822.8,62040,6.44,73430.0,-16.09,-16.51,-16.41,0,*6F
1513821824.02,62041,6.44,73422.8,-16.07,-16.55,-16.41,0,*64
1513821825.27,62042,6.44,73426.3,-16.07,-16.55,-16.51,0,*66
1513821826.51,62043,6.44,73416.3,-16.07,-16.51,-16.55,0,*67
1513821827.76,62044,6.44,73424.8,-16.07,-16.55,-16.65,0,*67
1513821829.03,62045,6.44,73426.5,-16.07,-16.65,-16.65,0,*65
1513821830.27,62046,6.44,73416.5,-16.09,-16.79,-16.79,0,*68
1513821831.51,62047,6.44,73422.3,-16.05,-16.75,-16.79,0,*69
1513821832.73,62048,6.44,73422.0,-16.07,-16.79,-16.83,0,*6D
1513821833.95,62049,6.44,73428.5,-16.07,-16.79,-16.93,0,*6D
1513821835.19,62050,6.44,73432.8,-16.09,-16.83,-16.83,0,*6F
1513821836.41,62051,6.44,73420.5,-16.07,-16.83,-16.83,0,*60
1513821837.65,62052,6.44,73428.8,-16.05,-16.79,-16.89,0,*6E
1513821838.89,62053,6.44,73432.0,-16.05,-16.79,-16.79,0,*60
1513821840.13,62054,6.44,73428.5,-16.05,-16.79,-16.75,0,*6B
1513821841.38,62055,6.44,73434.3,-16.05,-16.79,-16.75,0,*6A
1513821842.62,62056,6.44,73434.5,-16.05,-16.75,-16.79,0,*69
1513821843.89,62057,6.44,73432.5,-16.05,-16.65,-16.75,0,*65
1513821845.16,62058,6.44,73434.0,-16.05,-16.65,-16.59,0,*64
1513821846.46,62059,6.44,73430.8,-16.01,-16.65,-16.65,0,*6E
1513821847.72,62060,6.44,73432.3,-16.05,-16.59,-16.65,0,*6F
1513821848.99,62061,6.44,73434.8,-16.05,-16.59,-16.65,0,*6E
1513821850.26,62062,6.44,73434.3,-16.05,-16.65,-16.59,0,*6D
1513821851.53,62063,6.44,73432.3,-16.05,-16.65,-16.59,0,*6C
1513821852.77,62064,6.44,73436.0,-16.05,-16.59,-16.59,0,*64
1513821854.02,62065,6.44,73434.8,-16.05,-16.75,-16.75,0,*65
1513821855.26,62066,6.44,73432.5,-16.05,-16.79,-16.75,0,*6A
1513821856.53,62067,6.44,73430.5,-16.01,-16.79,-16.65,0,*6E
1513821857.77,62068,6.44,73428.3,-16.01,-16.79,-16.89,0,*63
1513821859.0,62069,6.44,73430.0,-16.05,-16.89,-16.89,0,*69
1513821860.23,62070,6.44,73442.3,-16.05,-16.93,-16.93,0,*61
1513821861.46,62071,6.44,73446.0,-16.05,-16.93,-16.93,0,*60
1513821862.68,62072,6.44,73416.3,-15.99,-16.89,-16.83,0,*6F
1513821863.92,62073,6.44,73428.5,-16.05,-16.79,-16.79,0,*62
1513821865.17,62074,6.44,73434.0,-16.01,-16.79,-16.79,0,*61
1513821866.4,62075,6.44,73428.3,-16.01,-16.93,-16.93,0,*60
1513821867.7,62076,6.44,73436.8,-16.05,-17.07,-17.07,0,*67
1513821868.98,62077,6.44,73440.5,-16.05,-17.11,-17.11,0,*66
1513821870.27,62078,6.44,73432.8,-16.05,-17.11,-17.11,0,*69
1513821871.56,62079,6.44,73430.3,-16.01,-17.11,-17.21,0,*6F
1513821872.81,62080,6.44,73428.8,-16.05,-17.35,-17.35,0,*6E
1513821874.06,62081,6.44,73430.0,-16.05,-17.35,-17.35,0,*6F
1513821875.31,62082,6.44,73426.8,-16.01,-17.49,-17.35,0,*63
1513821876.58,62083,6.44,73426.5,-16.05,-17.41,-17.35,0,*6E
1513821877.87,62084,6.44,73422.3,-16.05,-17.41,-17.25,0,*68
1513821879.14,62085,6.44,73426.0,-16.05,-17.41,-17.35,0,*68
1513821880.39,62086,6.44,73420.5,-16.05,-17.35,-17.35,0,*68
1513821881.6,62087,6.44,73428.8,-16.07,-17.31,-17.31,0,*6B
1513821882.89,62088,6.44,73428.8,-16.05,-17.25,-17.21,0,*62
1513821884.18,62089,6.44,73438.3,-16.05,-17.11,-17.07,0,*60
1513821885.47,62090,6.44,73438.0,-16.05,-17.21,-17.11,0,*6C
1513821886.73,62091,6.44,73432.8,-16.05,-17.11,-16.97,0,*61
1513821887.97,62092,6.44,73430.5,-16.05,-16.97,-16.97,0,*6D
1513821889.24,62093,6.44,73432.3,-16.05,-17.07,-16.97,0,*64
1513821890.52,62094,6.44,73436.8,-16.05,-17.11,-17.25,0,*6C
1513821891.73,62095,6.44,73442.8,-16.07,-17.31,-17.31,0,*68
1513821893.0,62096,6.44,73440.3,-16.07,-17.41,-17.41,0,*6B
1513821894.27,62097,6.44,73442.3,-16.05,-17.41,-17.49,0,*60
1513821895.54,62098,6.44,73424.0,-16.05,-17.41,-17.35,0,*64
1513821896.81,62099,6.44,73422.0,-16.07,-17.41,-17.41,0,*64
1513821898.09,62100,6.44,73428.3,-16.07,-17.45,-17.45,0,*65
1513821899.36,62101,6.44,73426.5,-16.07,-17.55,-17.59,0,*68
1513821900.6,62102,6.44,73432.3,-16.07,-17.59,-17.69,0,*64
1513821901.84,62103,6.44,73426.3,-16.07,-17.69,-17.55,0,*69
1513821903.13,62104,6.44,73428.0,-16.09,-17.55,-17.45,0,*6E
1513821904.42,62105,6.44,73432.8,-16.09,-17.55,-17.45,0,*6F
1513821905.71,62106,6.44,73438.3,-16.09,-17.55,-17.45,0,*6C
1513821907.0,62107,6.44,73424.3,-16.09,-17.45,-17.45,0,*6C
1513821908.28,62108,6.44,73422.0,-16.07,-17.17,-17.17,0,*6D
1513821909.55,62109,6.44,73418.5,-16.07,-17.17,-17.17,0,*6C
1513821910.75,62110,6.44,73420.5,-16.07,-17.31,-17.31,0,*64
1513821912.05,62111,6.44,73422.5,-16.09,-17.41,-17.41,0,*6B
1513821913.34,62112,6.44,73418.0,-16.09,-17.55,-17.59,0,*64
1513821914.56,62113,6.44,73428.5,-16.07,-17.73,-17.73,0,*67
1513821915.82,62114,6.44,73430.3,-16.09,-17.69,-17.59,0,*6D
1513821917.06,62115,6.44,73440.3,-16.09,-17.69,-17.73,0,*64
1513821918.3,62116,6.44,73442.8,-16.09,-17.83,-17.73,0,*63
1513821919.55,62117,6.44,73438.0,-16.09,-17.83,-17.83,0,*6D
1513821920.85,62118,6.44,73432.5,-16.09,-17.97,-17.97,0,*62
1513821922.12,62119,6.44,73428.3,-16.09,-17.87,-17.97,0,*62
1513821923.37,62120,6.44,73416.8,-16.09,-17.87,-17.87,0,*69
1513821924.63,62121,6.44,73422.0,-16.11,-18.01,-17.93,0,*65
1513821925.92,62122,6.44,73432.5,-16.13,-17.93,-17.93,0,*60
1513821927.18,62123,6.44,73424.3,-16.11,-17.93,-17.93,0,*63
1513821928.44,62124,6.44,73422.0,-16.11,-17.93,-18.01,0,*60
1513821929.7,62125,6.44,73422.3,-16.11,-17.93,-17.93,0,*65
1513821930.99,62126,6.44,73434.0,-16.13,-17.93,-17.93,0,*64
1513821932.25,62127,6.44,73422.3,-16.11,-18.01,-17.93,0,*63
1513821933.54,62128,6.44,73420.5,-16.13,-17.93,-18.01,0,*6E
1513821934.81,62129,6.44,73424.3,-16.13,-17.93,-18.07,0,*69
1513821936.06,62130,6.44,73422.8,-16.11,-18.01,-18.07,0,*67
1513821937.3,62131,6.44,73422.5,-16.13,-18.07,-18.11,0,*65
1513821938.52,62132,6.44,73426.3,-16.15,-18.11,-18.11,0,*67
1513821939.77,62133,6.44,73424.0,-16.17,-18.11,-18.07,0,*63
1513821940.99,62134,6.44,73424.3,-16.15,-18.07,-18.11,0,*66
1513821942.24,62135,6.44,73422.8,-16.15,-17.97,-18.07,0,*66
1513821943.52,62136,6.44,73422.0,-16.17,-17.97,-18.07,0,*67
1513821944.74,62137,6.44,73424.8,-16.15,-18.07,-18.07,0,*62
1513821945.99,62138,6.44,73424.8,-16.17,-18.07,-18.07,0,*6F
1513821947.26,62139,6.44,73420.8,-16.17,-17.97,-18.17,0,*69
1513821948.51,62140,6.44,73430.5,-16.17,-18.07,-18.11,0,*67
1513821949.75,62141,6.44,73426.5,-16.17,-18.11,-18.17,0,*67
1513821950.97,62142,6.44,73416.3,-16.19,-18.11,-18.21,0,*6F
1513821952.19,62143,6.44,73420.3,-16.19,-18.11,-18.11,0,*6D
1513821953.44,62144,6.44,73424.8,-16.19,-17.87,-17.97,0,*6B
1513821954.72,62145,6.44,73428.3,-16.19,-17.97,-18.01,0,*6B
1513821955.99,62146,6.44,73426.8,-16.19,-17.97,-18.01,0,*68
1513821957.24,62147,6.44,73426.0,-16.19,-17.87,-18.01,0,*68
1513821958.52,62148,6.44,73424.5,-16.19,-17.97,-17.97,0,*66
1513821959.77,62149,6.44,73424.8,-16.19,-17.73,-17.97,0,*6D
1513821961.01,62150,6.44,73424.3,-16.21,-17.97,-17.83,0,*61
1513821962.26,62151,6.44,73428.3,-16.19,-17.83,-17.97,0,*6B
1513821963.48,62152,6.44,73426.3,-16.21,-17.83,-17.87,0,*62
1513821964.69,62153,6.44,73424.8,-16.21,-17.69,-17.73,0,*6C
1513821965.89,62154,6.44,73426.3,-16.21,-17.69,-17.73,0,*6B
1513821967.13,62155,6.44,73426.5,-16.21,-17.59,-17.69,0,*62
1513821968.36,62156,6.44,73424.0,-16.21,-17.69,-17.59,0,*61
1513821969.64,62157,6.38,73418.8,-16.19,-17.45,-17.59,0,*65
1513821970.9,62158,6.44,73430.8,-16.21,-17.17,-17.17,0,*6C
1513821972.15,62159,6.44,73432.3,-16.19,-17.17,-17.31,0,*62
1513821973.39,62160,6.44,73434.8,-16.19,-17.25,-17.31,0,*69
1513821974.67,62161,6.44,73424.5,-16.19,-17.17,-17.17,0,*6D
1513821975.94,62162,6.44,73424.0,-16.19,-17.07,-17.17,0,*6F
1513821977.21,62163,6.44,73428.5,-16.19,-17.11,-17.11,0,*6F
1513821978.48,62164,6.44,73426.3,-16.19,-17.11,-17.11,0,*68
1513821979.75,62165,6.44,73428.8,-16.19,-17.07,-17.11,0,*6E
1513821981.02,62166,6.44,73434.3,-16.19,-17.11,-17.11,0,*6A
1513821982.29,62167,6.44,73432.5,-16.19,-17.11,-17.11,0,*6B
1513821983.57,62168,6.44,73442.8,-16.19,-17.11,-17.07,0,*63
1513821984.85,62169,6.44,73436.8,-16.19,-17.07,-17.11,0,*62
1513821986.14,62170,6.44,73438.3,-16.17,-17.03,-17.03,0,*63
1513821987.44,62171,6.44,73434.8,-16.17,-17.03,-17.03,0,*62
1513821988.72,62172,6.44,73436.8,-16.19,-17.07,-17.11,0,*68
1513821990.01,62173,6.44,73436.8,-16.17,-17.03,-17.11,0,*63
1513821991.31,62174,6.44,73434.0,-16.17,-17.07,-17.11,0,*60
1513821992.61,62175,6.44,73428.8,-16.17,-17.07,-17.11,0,*61
1513821993.88,62176,6.44,73428.5,-16.15,-17.03,-17.07,0,*63
1513821995.19,62177,6.44,73424.8,-16.17,-17.07,-17.07,0,*64
1513821996.46,62178,6.44,73432.3,-16.15,-17.07,-17.11,0,*6E
1513821997.76,62179,6.44,73434.5,-16.17,-17.07,-17.11,0,*6D
1513821999.06,62180,6.44,73430.8,-16.17,-17.21,-17.21,0,*6C
1513822000.35,62181,6.44,73434.0,-16.17,-17.21,-17.11,0,*6E
1513822001.62,62182,6.44,73434.3,-16.15,-17.11,-17.21,0,*6F
1513822002.9,62183,6.44,73436.8,-16.17,-17.21,-17.35,0,*6A
1513822004.16,62184,6.44,73438.8,-16.15,-17.25,-17.25,0,*6A
1513822005.43,62185,6.44,73436.0,-16.15,-17.21,-17.21,0,*6B
1513822006.71,62186,6.44,73434.5,-16.17,-17.21,-17.35,0,*6F
1513822007.98,62187,6.44,73430.0,-16.15,-17.25,-17.25,0,*69
1513822009.24,62188,6.44,73422.5,-16.15,-17.21,-17.25,0,*62
1513822010.49,62189,6.44,73422.0,-16.15,-17.25,-17.35,0,*66
1513822011.77,62190,6.44,73426.8,-16.17,-17.25,-17.35,0,*6C
1513822013.04,62191,6.44,73422.5,-16.15,-17.21,-17.25,0,*6A
1513822014.31,62192,6.44,73416.3,-16.15,-17.11,-17.11,0,*6D
1513822015.6,62193,6.44,73424.3,-16.17,-17.11,-17.25,0,*69
1513822016.87,62194,6.44,73434.3,-16.15,-17.21,-17.21,0,*6B
1513822018.14,62195,6.38,73426.5,-16.15,-17.21,-17.11,0,*69
1513822019.43,62196,6.44,73430.3,-16.17,-17.03,-17.11,0,*68
1513822020.71,62197,6.44,73430.5,-16.15,-17.03,-17.07,0,*6C
1513822021.98,62198,6.38,73424.3,-16.15,-17.03,-17.03,0,*67
1513822023.2,62199,6.44,73426.8,-16.15,-16.89,-16.93,0,*6D
1513822024.41,62200,6.44,73426.8,-16.15,-16.89,-16.93,0,*6E
1513822025.65,62201,6.44,73430.0,-16.13,-16.89,-16.89,0,*62
1513822026.89,62202,6.44,73432.8,-16.15,-16.93,-17.03,0,*6F
1513822028.16,62203,6.44,73436.5,-16.13,-16.97,-17.03,0,*6C
1513822029.45,62204,6.44,73436.5,-16.13,-17.07,-17.17,0,*66
1513822030.74,62205,6.44,73436.8,-16.13,-17.17,-17.21,0,*63
1513822032.04,62206,6.44,73434.0,-16.13,-17.21,-17.21,0,*65
1513822033.28,62207,6.44,73432.3,-16.13,-17.35,-17.31,0,*60
1513822034.54,62208,6.44,73436.5,-16.13,-17.31,-17.45,0,*68
1513822035.81,62209,6.38,73434.8,-16.13,-17.49,-17.59,0,*6B
1513822037.07,62210,6.44,73434.3,-16.13,-17.59,-17.49,0,*63
1513822038.31,62211,6.44,73434.5,-16.13,-17.49,-17.49,0,*63
1513822039.6,62212,6.44,73430.3,-16.13,-17.59,-17.63,0,*69
1513822040.84,62213,6.44,73430.3,-16.15,-17.63,-17.69,0,*6D
1513822042.11,62214,6.44,73428.5,-16.15,-17.41,-17.55,0,*65
1513822043.39,62215,6.44,73432.3,-16.17,-17.41,-17.49,0,*6B
1513822044.66,62216,6.44,73428.0,-16.15,-17.41,-17.41,0,*62
1513822045.88,62217,6.44,73424.5,-16.15,-17.35,-17.49,0,*68
1513822047.16,62218,6.44,73424.3,-16.17,-17.25,-17.35,0,*6F
1513822048.43,62219,6.44,73436.5,-16.17,-17.25,-17.35,0,*6E
1513822049.74,62220,6.44,73438.0,-16.17,-17.41,-17.41,0,*65
1513822050.98,62221,6.44,73430.8,-16.15,-17.35,-17.41,0,*65
1513822052.26,62222,6.44,73424.5,-16.15,-17.41,-17.41,0,*65
1513822053.53,62223,6.44,73440.0,-16.15,-17.41,-17.41,0,*64
1513822054.76,62224,6.44,73438.3,-16.15,-17.35,-17.35,0,*63
1513822056.0,62225,6.44,73430.3,-16.15,-17.35,-17.25,0,*63
1513822057.27,62226,6.44,73432.3,-16.15,-17.11,-17.11,0,*61
1513822058.54,62227,6.44,73426.5,-16.15,-17.07,-17.11,0,*67
1513822059.81,62228,6.44,73426.5,-16.15,-17.07,-17.11,0,*68
1513822061.08,62229,6.44,73430.5,-16.15,-17.07,-17.11,0,*69
1513822062.36,62230,6.44,73424.8,-16.15,-17.03,-17.07,0,*62
1513822063.63,62231,6.44,73426.0,-16.15,-17.03,-17.03,0,*67
1513822064.9,62232,6.44,73428.0,-16.15,-17.03,-17.03,0,*64
1513822066.14,62233,6.38,73426.0,-16.15,-17.03,-16.93,0,*6D
1513822067.36,62234,6.44,73432.8,-16.11,-16.89,-16.83,0,*6C
1513822068.61,62235,6.44,73432.3,-16.13,-16.83,-16.75,0,*6C
1513822069.88,62236,6.44,73430.8,-16.13,-16.83,-16.69,0,*62
1513822071.17,62237,6.44,73430.3,-16.13,-16.69,-16.69,0,*67
1513822072.42,62238,6.44,73432.3,-16.13,-16.55,-16.59,0,*64
1513822073.67,62239,6.44,73436.5,-16.13,-16.75,-16.59,0,*67
1513822074.93,62240,6.44,73434.0,-16.11,-16.69,-16.69,0,*65
1513822076.2,62241,6.44,73428.3,-16.11,-16.69,-16.69,0,*64
1513822077.47,62242,6.44,73430.0,-16.11,-16.69,-16.69,0,*67
1513822078.73,62243,6.44,73426.8,-16.11,-16.69,-16.69,0,*66
1513822080.02,62244,6.44,73428.3,-16.13,-16.69,-16.69,0,*63
1513822081.27,62245,6.44,73424.0,-16.11,-16.59,-16.69,0,*63
1513822082.56,62246,6.44,73430.3,-16.09,-16.65,-16.65,0,*6A
1513822083.86,62247,6.44,73430.5,-16.09,-16.65,-16.65,0,*6B
1513822085.15,62248,6.44,73426.3,-16.09,-16.69,-16.65,0,*68
1513822086.44,62249,6.44,73432.8,-16.09,-16.65,-16.69,0,*69
1513822087.74,62250,6.44,73426.5,-16.09,-16.65,-16.69,0,*61
1513822089.01,62251,6.44,73422.3,-16.07,-16.65,-16.69,0,*6E
1513822090.3,62252,6.44,73422.0,-16.09,-16.65,-16.65,0,*6F
1513822091.59,62253,6.44,73426.8,-16.09,-16.65,-16.65,0,*6E
1513822092.86,62254,6.44,73426.8,-16.07,-16.69,-16.69,0,*67
1513822094.11,62255,6.44,73428.3,-16.07,-16.69,-16.79,0,*67
1513822095.38,62256,6.44,73434.3,-16.09,-16.69,-16.79,0,*6A
1513822096.65,62257,6.44,73420.8,-16.09,-16.69,-16.83,0,*6E
1513822097.87,62258,6.44,73422.3,-16.07,-16.83,-16.83,0,*6B
1513822099.11,62259,6.44,73428.5,-16.07,-16.65,-16.79,0,*67
1513822100.36,62260,6.44,73426.0,-16.05,-16.75,-16.75,0,*62
1513822101.63,62261,6.44,73434.3,-16.09,-16.69,-16.83,0,*6B
1513822102.87,62262,6.38,73430.3,-16.07,-16.69,-16.83,0,*66